Home   Weather   Winsen (Luhe)   Past weeks

Flag for Germany Past Weather in Winsen (Luhe), Lower Saxony, Germany — Yesterday and Last 2 Weeks

45 °F


Feels Like: 42 °F
Forecast: 42 / 51 °F
Wind: 5 mph from Northeast

Location: Hamburg-Fuhlsbuettel

Current Time: Oct 24, 2016 at 11:53:20 PM

Latest Report: Oct 24, 2016 at 11:20 PM

Visibility: 2 mi

Pressure: 30.07 "Hg

Humidity: 93%

Dew Point: 43 °F

Location of Winsen (Luhe)Location

Past Weather in Winsen (Luhe) — Graph


Winsen (Luhe) Temperature Yesterday

Maximum temperature yesterday: 52 °F (at 2:20 PM)
Minimum temperature yesterday: 45 °F (at 12:20 AM)
Average temperature yesterday: 46 °F

High & Low Weather Summary for the Past Weeks

High61 °F (Oct 18, 2:20 PM)100% (Oct 9, 10:20 PM)30.27 "Hg (Oct 9, 10:20 PM)
Low36 °F (Oct 10, 1:50 AM)62% (Oct 23, 2:50 PM)29.80 "Hg (Oct 15, 5:50 AM)
Average48 °F89%30.06 "Hg
* Reported Oct 9 10:20 PM — Oct 24 10:20 PM, Winsen (Luhe), Weather by CustomWeather, © 2016

Note: Actual official high and low records may vary slightly from our data, if they occured in-between our weather recording intervals... More about our weather records


Winsen (Luhe) Weather History for the Previous 24 Hours

Scroll right to see more
Time TempWeatherWind HumidityBarometerVisibility
10:20 PM
Mon, Oct 24
45 °FFog.3 mph93%30.07 "Hg2 mi
9:50 PM45 °FFog.3 mph93%30.07 "Hg2 mi
9:20 PM45 °FFog.5 mph93%30.04 "Hg2 mi
8:50 PM45 °FFog.5 mph93%30.04 "Hg2 mi
8:20 PM45 °FFog.6 mph93%30.04 "Hg2 mi
7:50 PM45 °FFog.6 mph93%30.04 "Hg2 mi
7:20 PM45 °FPassing clouds.6 mph93%30.07 "Hg4 mi
6:50 PM45 °FPassing clouds.7 mph93%30.07 "Hg4 mi
6:20 PM45 °FPartly cloudy.8 mph93%30.07 "Hg4 mi
5:50 PM45 °FPartly sunny.8 mph93%30.07 "Hg5 mi
5:20 PM45 °FPartly sunny.7 mph93%30.07 "Hg5 mi
4:50 PM45 °FPartly sunny.9 mph93%30.04 "Hg5 mi
4:20 PM45 °FBroken clouds.9 mph93%30.04 "Hg5 mi
3:50 PM45 °FBroken clouds.9 mph93%30.04 "Hg5 mi
3:20 PM45 °FBroken clouds.8 mph93%30.04 "Hg5 mi
2:50 PM45 °FPartly sunny.7 mph93%30.04 "Hg5 mi
2:20 PM45 °FBroken clouds.7 mph93%30.04 "Hg4 mi
1:50 PM45 °FBroken clouds.9 mph93%30.04 "Hg4 mi
1:20 PM45 °FBroken clouds.7 mph93%30.04 "Hg4 mi
12:50 PM45 °FBroken clouds.8 mph93%30.07 "Hg4 mi
12:20 PM43 °FPartly sunny.7 mph100%30.07 "Hg4 mi
11:50 AM43 °FFog.7 mph100%30.07 "Hg2 mi
11:20 AM43 °FFog.6 mph100%30.07 "Hg2 mi
10:50 AM43 °FFog.6 mph100%30.07 "Hg1 mi
10:20 AM41 °FFog.6 mph100%30.07 "Hg1 mi
9:50 AM41 °FFog.7 mph100%30.07 "Hg1 mi
9:20 AM41 °FFog.6 mph100%30.07 "Hg1 mi
8:50 AM41 °FFog.7 mph100%30.04 "Hg1 mi
8:20 AM41 °FFog.6 mph100%30.04 "Hg1 mi
7:50 AM41 °FFog.6 mph100%30.04 "Hg1 mi
7:20 AM41 °FFog.6 mph100%30.04 "Hg1 mi
6:50 AM41 °FFog.6 mph100%30.04 "Hg1 mi
6:20 AM41 °FFog.6 mph100%30.04 "Hg1 mi
5:50 AM39 °FFog.7 mph100%30.01 "Hg1 mi
5:20 AM39 °FFog.5 mph100%30.01 "Hg1 mi
4:50 AM39 °FFog.6 mph100%30.04 "Hg2 mi
4:20 AM37 °FPassing clouds.3 mph100%30.01 "Hg4 mi
3:50 AM37 °FPassing clouds.6 mph100%30.01 "Hg4 mi
3:20 AM39 °FPassing clouds.6 mph93%30.01 "Hg4 mi
2:50 AM39 °FClear.6 mph100%30.01 "Hg6 mi
2:20 AM41 °FClear.5 mph93%30.01 "Hg6 mi
1:50 AM41 °FClear.6 mph93%30.01 "Hg10 mi
1:20 AM41 °FClear.5 mph100%30.01 "Hg10 mi
12:50 AM43 °FPassing clouds.3 mph93%30.01 "HgN/A
12:20 AM43 °FClear.3 mph93%30.01 "Hg10 mi
11:50 PM
Sun, Oct 23
45 °FClear.5 mph87%30.01 "Hg10 mi
11:20 PM45 °FClear.6 mph87%30.01 "Hg10 mi
Weather by CustomWeather, © 2016

See weather overviewHow to use our weather pages